Weather History for New Orleans Lakefront, LA

Change the Weather History Date:

Tuesday, October 8, 2013

  Actual Average Record
Temperature  
Mean Temperature 70 °F 74 °F  
Max Temperature 77 °F 82 °F 91 °F (1962)
Min Temperature 63 °F 65 °F 40 °F (1964)
Degree Days  
Heating Degree Days 0 0  
Month to date heating degree days 0 0  
Since 1 July heating degree days 0 0  
Cooling Degree Days 5 9  
Month to date cooling degree days 102 80  
Year to date cooling degree days 2749 2769  
Growing Degree Days 20 (Base 50)    
Moisture  
Dew Point 57 °F    
Average Humidity 62    
Maximum Humidity 78    
Minimum Humidity 46    
Precipitation  
Precipitation 0.00 in 0.11 in 2.06 in (1999)
Month to date precipitation 0.63 0.90  
Year to date precipitation 59.62 50.08  
Snow  
Snow 0.00 in - - ()
Month to date snowfall 0.0  
Since 1 July snowfall 0.0  
Since 1 September snowfall 0.0  
Snow Depth 0.00 in    
Sea Level Pressure  
Sea Level Pressure 30.01 in    
Wind  
Wind Speed 6 mph (North)    
Max Wind Speed 16 mph    
Max Gust Speed 21 mph    
Visibility 10 miles    
Events      
T = Trace of Precipitation, MM = Missing Value Source: NWS Daily Summary

Daily Weather History Graph

Daily Weather History Graph

Search for Another Location

Airport:

Trip Planner

Search our weather history database for the weather conditions in past years. The results will help you decide how hot, cold, wet, or windy it might be!

Date:

Astronomy

Oct. 08, 2013 Rise Set
Actual Time 6:57 AM CDT 6:36 PM CDT
Civil Twilight 6:33 AM CDT 7:00 PM CDT
Nautical Twilight 6:06 AM CDT 7:28 PM CDT
Astronomical Twilight 5:38 AM CDT 7:56 PM CDT
Moon 10:36 AM CDT (10/8) 9:29 PM CDT (10/8)
Length of Visible Light 12h 27m
Length of Day
11h 39m
Waxing Crescent, 16% of the Moon is Illuminated
Oct 8
Waxing Crescent
Oct 11
First Quarter
Oct 18
Full
Oct 26
Last Quarter
Nov 3
New

Hourly Weather History & Observations

Time (CDT) Temp. Dew Point Humidity Pressure Visibility Wind Dir Wind Speed Gust Speed Precip Events Conditions
12:53 AM 69.1 °F 57.0 °F 65% 30.02 in 10.0 mi North 21.9 mph - N/A   Clear
1:53 AM 68.0 °F 57.9 °F 70% 30.01 in 10.0 mi NNE 19.6 mph - N/A   Clear
2:53 AM 68.0 °F 59.0 °F 73% 30.00 in 10.0 mi NNE 18.4 mph - N/A   Clear
3:53 AM 66.9 °F 57.0 °F 70% 29.99 in 10.0 mi NNE 18.4 mph - N/A   Clear
4:53 AM 66.0 °F 57.0 °F 73% 30.00 in 10.0 mi NE 19.6 mph - N/A   Clear
5:53 AM 64.9 °F 57.0 °F 75% 30.01 in 10.0 mi NE 17.3 mph - N/A   Clear
6:53 AM 64.9 °F 57.0 °F 75% 30.01 in 10.0 mi NNE 17.3 mph - N/A   Clear
7:53 AM 64.9 °F 57.0 °F 75% 30.02 in 10.0 mi NNE 15.0 mph - N/A   Clear
8:53 AM 66.0 °F 55.9 °F 70% 30.04 in 10.0 mi NE 11.5 mph - N/A   Clear
9:53 AM 68.0 °F 57.0 °F 68% 30.04 in 10.0 mi NE 10.4 mph - N/A   Clear
10:53 AM 70.0 °F 54.0 °F 57% 30.04 in 10.0 mi NE 6.9 mph - N/A   Clear
11:53 AM 72.0 °F 53.1 °F 51% 30.04 in 10.0 mi NNE 5.8 mph - N/A   Clear
12:53 PM 73.0 °F 54.0 °F 51% 30.03 in 10.0 mi NW 6.9 mph - N/A   Clear
1:53 PM 73.9 °F 55.0 °F 52% 30.00 in 10.0 mi NW 6.9 mph - N/A   Clear
2:53 PM 73.0 °F 57.0 °F 57% 29.98 in 10.0 mi West 10.4 mph - N/A   Clear
3:53 PM 73.9 °F 57.0 °F 55% 29.98 in 10.0 mi West 9.2 mph - N/A   Clear
4:53 PM 75.0 °F 57.0 °F 53% 29.98 in 10.0 mi West 8.1 mph - N/A   Clear
5:53 PM 75.0 °F 57.9 °F 55% 29.98 in 10.0 mi West 6.9 mph - N/A   Clear
6:53 PM 73.9 °F 57.0 °F 55% 29.98 in 10.0 mi NW 4.6 mph - N/A   Clear
7:53 PM 73.9 °F 57.0 °F 55% 30.00 in 10.0 mi NNW 5.8 mph - N/A   Clear
8:53 PM 75.0 °F 55.9 °F 51% 30.01 in 10.0 mi NNE 8.1 mph - N/A   Clear
9:53 PM 75.0 °F 55.9 °F 51% 30.02 in 10.0 mi NNE 9.2 mph - N/A   Clear
10:53 PM 73.9 °F 59.0 °F 59% 30.02 in 10.0 mi NNE 12.7 mph - N/A   Clear
11:53 PM 73.9 °F 60.1 °F 62% 30.01 in 10.0 mi NE 10.4 mph - N/A   Clear